Weather History for KSQI - September, 2013

Change the Weather History Date:

Monday, September 2, 2013

  Actual Average Record
Temperature  
Mean Temperature 70 °F -  
Max Temperature 80 °F 78 °F 93 °F (2000)
Min Temperature 59 °F 55 °F 44 °F (2001)
Cooling Degree Days 5    
Growing Degree Days 20 (Base 50)    
Moisture  
Dew Point 58 °F    
Average Humidity 68    
Maximum Humidity 88    
Minimum Humidity 44    
Precipitation  
Precipitation 0.00 in - - ()
Sea Level Pressure  
Sea Level Pressure 29.95 in    
Wind  
Wind Speed 8 mph (North)    
Max Wind Speed 13 mph    
Max Gust Speed 18 mph    
Visibility 10 miles    
Events      
Averages and records for this station are not official NWS values.
T = Trace of Precipitation, MM = Missing Value Source: NWS Daily Summary

Daily Weather History Graph

Daily Weather History Graph

Search for Another Location

Airport or City:

Trip Planner

Search our weather history database for the weather conditions in past years. The results will help you decide how hot, cold, wet, or windy it might be!

Date:

Astronomy

Sep. 02, 2013 Rise Set
Actual Time 6:25 AM CDT 7:29 PM CDT
Civil Twilight 5:57 AM CDT 7:58 PM CDT
Nautical Twilight 5:23 AM CDT 8:32 PM CDT
Astronomical Twilight 4:47 AM CDT 9:07 PM CDT
Moon 3:41 AM CDT 5:44 PM CDT
Length of Visible Light 14h 01m
Length of Day
13h 04m
Waning Crescent, 8% of the Moon is Illuminated
Sep 2
Waning Crescent
Sep 5
New
Sep 12
First Quarter
Sep 19
Full
Sep 26
Last Quarter

Hourly Weather History & Observations

Time (CDT) Temp. Heat Index Dew Point Humidity Pressure Visibility Wind Dir Wind Speed Gust Speed Precip Events Conditions
12:15 AM 69.8 °F - 59.0 °F 68% 29.87 in 10.0 mi NNW 5.8 mph - N/A   Partly Cloudy
12:35 AM 68.0 °F - 59.0 °F 73% 29.87 in 10.0 mi NNW 8.1 mph - N/A   Clear
12:55 AM 66.2 °F - 60.8 °F 83% 29.87 in 10.0 mi NNW 5.8 mph - N/A   Clear
1:15 AM 66.2 °F - 59.0 °F 78% 29.87 in 10.0 mi NNW 6.9 mph - N/A   Clear
1:35 AM 66.2 °F - 59.0 °F 78% 29.87 in 10.0 mi NNW 6.9 mph - N/A   Clear
1:55 AM 66.2 °F - 59.0 °F 78% 29.86 in 10.0 mi NNW 9.2 mph - N/A   Clear
2:15 AM 66.2 °F - 60.8 °F 83% 29.86 in 10.0 mi NNW 6.9 mph - N/A   Clear
2:35 AM 66.2 °F - 60.8 °F 83% 29.87 in 10.0 mi NNW 9.2 mph - N/A   Clear
2:55 AM 66.2 °F - 60.8 °F 83% 29.87 in 10.0 mi NNW 10.4 mph - N/A   Clear
3:15 AM 64.4 °F - 60.8 °F 88% 29.87 in 10.0 mi NNW 8.1 mph - N/A   Clear
3:35 AM 64.4 °F - 60.8 °F 88% 29.88 in 10.0 mi North 11.5 mph - N/A   Clear
3:55 AM 64.4 °F - 59.0 °F 83% 29.88 in 10.0 mi North 9.2 mph - N/A   Clear
4:15 AM 64.4 °F - 59.0 °F 83% 29.89 in 10.0 mi North 8.1 mph - N/A   Partly Cloudy
4:35 AM 64.4 °F - 59.0 °F 83% 29.89 in 10.0 mi North 8.1 mph - N/A   Mostly Cloudy
4:55 AM 62.6 °F - 59.0 °F 88% 29.89 in 10.0 mi North 6.9 mph - N/A   Scattered Clouds
5:15 AM 62.6 °F - 57.2 °F 82% 29.90 in 10.0 mi North 6.9 mph - N/A   Clear
5:35 AM 62.6 °F - 57.2 °F 82% 29.91 in 10.0 mi North 5.8 mph - N/A   Clear
5:55 AM 62.6 °F - 57.2 °F 82% 29.92 in 10.0 mi NNW 4.6 mph - N/A   Clear
6:15 AM 62.6 °F - 57.2 °F 82% 29.92 in 10.0 mi North 4.6 mph - N/A   Clear
6:35 AM 62.6 °F - 57.2 °F 82% 29.93 in 10.0 mi NNW 4.6 mph - N/A   Clear
6:55 AM 62.6 °F - 57.2 °F 82% 29.93 in 10.0 mi North 5.8 mph - N/A   Clear
7:15 AM 64.4 °F - 59.0 °F 83% 29.94 in 10.0 mi North 5.8 mph - N/A   Clear
7:35 AM 64.4 °F - 59.0 °F 83% 29.94 in 10.0 mi North 8.1 mph - N/A   Clear
7:55 AM 66.2 °F - 60.8 °F 83% 29.95 in 10.0 mi North 6.9 mph - N/A   Clear
8:15 AM 68.0 °F - 60.8 °F 78% 29.95 in 10.0 mi North 9.2 mph - N/A   Clear
8:35 AM 69.8 °F - 60.8 °F 73% 29.96 in 10.0 mi North 9.2 mph - N/A   Clear
8:55 AM 69.8 °F - 60.8 °F 73% 29.96 in 10.0 mi North 5.8 mph - N/A   Partly Cloudy
9:15 AM 69.8 °F - 60.8 °F 73% 29.97 in 10.0 mi NNE 9.2 mph - N/A   Scattered Clouds
9:35 AM 71.6 °F - 60.8 °F 69% 29.97 in 10.0 mi NE 10.4 mph - N/A   Mostly Cloudy
9:55 AM 71.6 °F - 60.8 °F 69% 29.98 in 10.0 mi NNE 10.4 mph - N/A   Scattered Clouds
10:15 AM 71.6 °F - 60.8 °F 69% 29.98 in 10.0 mi NNE 8.1 mph - N/A   Partly Cloudy
10:35 AM 73.4 °F - 60.8 °F 65% 29.97 in 10.0 mi NNE 5.8 mph - N/A   Scattered Clouds
10:55 AM 73.4 °F - 60.8 °F 65% 29.98 in 10.0 mi North 9.2 mph - N/A   Scattered Clouds
11:15 AM 75.2 °F - 62.6 °F 65% 29.98 in 10.0 mi NNW 9.2 mph - N/A   Mostly Cloudy
11:35 AM 75.2 °F - 62.6 °F 65% 29.98 in 10.0 mi North 8.1 mph - N/A   Mostly Cloudy
11:55 AM 77.0 °F - 62.6 °F 61% 29.97 in 10.0 mi North 9.2 mph - N/A   Mostly Cloudy
12:15 PM 75.2 °F - 60.8 °F 61% 29.98 in 10.0 mi NNW 8.1 mph - N/A   Scattered Clouds
12:35 PM 75.2 °F - 60.8 °F 61% 29.98 in 10.0 mi North 8.1 mph - N/A   Scattered Clouds
12:55 PM 78.8 °F - 59.0 °F 51% 29.98 in 10.0 mi NNW 6.9 mph - N/A   Mostly Cloudy
1:15 PM 78.8 °F - 57.2 °F 47% 29.98 in 10.0 mi NNW 10.4 mph - N/A   Mostly Cloudy
1:35 PM 78.8 °F - 57.2 °F 47% 29.97 in 10.0 mi NNW 9.2 mph - N/A   Partly Cloudy
1:55 PM 80.6 °F 81.1 °F 59.0 °F 48% 29.97 in 10.0 mi NW 11.5 mph - N/A   Scattered Clouds
2:15 PM 80.6 °F 80.8 °F 57.2 °F 45% 29.97 in 10.0 mi NNW 12.7 mph 18.4 mph N/A   Mostly Cloudy
2:35 PM 80.6 °F 80.8 °F 57.2 °F 45% 29.96 in 10.0 mi North 10.4 mph - N/A   Partly Cloudy
2:55 PM 78.8 °F - 57.2 °F 47% 29.96 in 10.0 mi North 10.4 mph - N/A   Partly Cloudy
3:15 PM 77.0 °F - 55.4 °F 47% 29.96 in 10.0 mi NNW 8.1 mph - N/A   Clear
3:35 PM 75.2 °F - 55.4 °F 50% 29.96 in 10.0 mi North 8.1 mph - N/A   Partly Cloudy
3:55 PM 78.8 °F - 57.2 °F 47% 29.96 in 10.0 mi NNW 11.5 mph 16.1 mph N/A   Partly Cloudy
4:15 PM 78.8 °F - 55.4 °F 44% 29.95 in 10.0 mi North 9.2 mph - N/A   Clear
4:35 PM 78.8 °F - 55.4 °F 44% 29.95 in 10.0 mi North 6.9 mph - N/A   Clear
4:55 PM 78.8 °F - 55.4 °F 44% 29.95 in 10.0 mi NNW 6.9 mph - N/A   Clear
5:15 PM 77.0 °F - 53.6 °F 44% 29.95 in 10.0 mi NW 9.2 mph - N/A   Clear
5:35 PM 75.2 °F - 55.4 °F 50% 29.95 in 10.0 mi North 8.1 mph - N/A   Clear
5:55 PM 75.2 °F - 53.6 °F 47% 29.96 in 10.0 mi NNW 5.8 mph - N/A   Clear
6:15 PM 75.2 °F - 55.4 °F 50% 29.96 in 10.0 mi North 8.1 mph - N/A   Clear
6:35 PM 73.4 °F - 53.6 °F 50% 29.96 in 10.0 mi North 9.2 mph - N/A   Clear
6:55 PM 73.4 °F - 55.4 °F 53% 29.96 in 10.0 mi North 5.8 mph - N/A   Clear
7:15 PM 71.6 °F - 55.4 °F 57% 29.96 in 10.0 mi North 4.6 mph - N/A   Clear
7:35 PM 69.8 °F - 55.4 °F 60% 29.97 in 10.0 mi North 4.6 mph - N/A   Clear
7:55 PM 68.0 °F - 55.4 °F 64% 29.98 in 10.0 mi NNE 8.1 mph - N/A   Clear
8:15 PM 66.2 °F - 55.4 °F 68% 29.99 in 10.0 mi NNE 8.1 mph - N/A   Clear
8:35 PM 66.2 °F - 55.4 °F 68% 29.99 in 10.0 mi NNE 8.1 mph - N/A   Clear
8:55 PM 64.4 °F - 55.4 °F 73% 30.00 in 10.0 mi NNE 8.1 mph - N/A   Clear
9:15 PM 62.6 °F - 55.4 °F 77% 30.00 in 10.0 mi North 5.8 mph - N/A   Clear
9:35 PM 62.6 °F - 55.4 °F 77% 30.01 in 10.0 mi North 5.8 mph - N/A   Clear
9:55 PM 62.6 °F - 55.4 °F 77% 30.01 in 10.0 mi North 5.8 mph - N/A   Clear
10:15 PM 60.8 °F - 53.6 °F 77% 30.01 in 10.0 mi North 4.6 mph - N/A   Clear
10:35 PM 60.8 °F - 53.6 °F 77% 30.01 in 10.0 mi North 4.6 mph - N/A   Clear
10:55 PM 60.8 °F - 53.6 °F 77% 30.02 in 10.0 mi North 3.5 mph - N/A   Clear
11:15 PM 60.8 °F - 53.6 °F 77% 30.02 in 10.0 mi North 4.6 mph - N/A   Clear
11:35 PM 60.8 °F - 53.6 °F 77% 30.02 in 10.0 mi North 4.6 mph - N/A   Clear
11:55 PM 59.0 °F - 53.6 °F 82% 30.02 in 10.0 mi NNE 4.6 mph - N/A   Clear